Location: Unspecified
(0.0000°N, 0.0000°E)
Time: 18:05:54
(UTC+01:00)

Cosmos 1300 - Visible Passes

Search period start: 17 January 2017 00:00
Search period end: 27 January 2017 00:00
Orbit: 514 x 518 km, 82.5° (Epoch: 16 January)

Date Brightness Start Highest point End Pass type
(mag) Time Alt. Az. Time Alt. Az. Time Alt. Az.
17 Jan 3.9 20:11:41 10° NNW 20:15:20 44° W 20:19:01 10° SSW visible
18 Jan 3.3 19:56:47 10° NNW 20:00:32 59° W 20:04:19 10° S visible
19 Jan 2.8 19:41:56 10° N 19:45:44 79° W 19:49:34 10° S visible
24 Jan 5.0 06:35:50 10° SSE 06:39:12 29° E 06:42:32 10° NNE visible
25 Jan 5.4 06:21:20 10° SSE 06:24:23 23° E 06:27:26 10° NE visible
25 Jan 6.6 19:51:43 10° W 19:52:21 10° W 19:52:59 10° WSW visible
26 Jan 5.8 06:06:56 10° SE 06:09:34 18° E 06:12:12 10° NE visible
26 Jan 6.1 19:35:37 10° WNW 19:37:32 13° W 19:39:29 10° SW visible
